Weather History for Laramie, WY

Change the Weather History Date:

Sunday, November 18, 2012

  Actual Average Record
Temperature  
Mean Temperature 39 °F 28 °F  
Max Temperature 51 °F 40 °F 61 °F (1949)
Min Temperature 27 °F 16 °F -11 °F (1980)
Degree Days  
Heating Degree Days 26 37  
Month to date heating degree days 493 593  
Since 1 July heating degree days 1558 1836  
Cooling Degree Days 0 0  
Month to date cooling degree days 0 0  
Year to date cooling degree days 211 67  
Moisture  
Dew Point 26 °F    
Average Humidity 64    
Maximum Humidity 92    
Minimum Humidity 35    
Precipitation  
Precipitation 0.00 in 0.02 in 0.29 in (1966)
Month to date precipitation 0.16 0.36  
Year to date precipitation 6.06 10.42  
Sea Level Pressure  
Sea Level Pressure 29.96 in    
Wind  
Wind Speed 11 mph (WSW)    
Max Wind Speed 29 mph    
Max Gust Speed 37 mph    
Visibility 10 miles    
Events      
T = Trace of Precipitation, MM = Missing Value Source: NWS Daily Summary

Daily Weather History Graph

Daily Weather History Graph

Search for Another Location

Airport:

Trip Planner

Search our weather history database for the weather conditions in past years. The results will help you decide how hot, cold, wet, or windy it might be!

Date:

Astronomy

Nov. 18, 2012 Rise Set
Actual Time 6:55 AM MST 4:40 PM MST
Civil Twilight 6:25 AM MST 5:10 PM MST
Nautical Twilight 5:51 AM MST 5:43 PM MST
Astronomical Twilight 5:18 AM MST 6:16 PM MST
Moon 11:23 AM MST (11/18) 10:04 PM MST (11/18)
Length of Visible Light 10h 45m
Length of Day
9h 45m
Waxing Crescent, 31% of the Moon is Illuminated
Nov 18
Waxing Crescent
Nov 20
First Quarter
Nov 28
Full
Dec 6
Last Quarter
Dec 13
New

Hourly Weather History & Observations

Time (MST) Temp. Windchill Dew Point Humidity Pressure Visibility Wind Dir Wind Speed Gust Speed Precip Events Conditions
12:53 AM 27.0 °F - 24.1 °F 89% 29.97 in 10.0 mi Calm Calm - N/A   Partly Cloudy
1:53 AM 28.0 °F - 24.1 °F 85% 29.96 in 10.0 mi Calm Calm - N/A   Clear
2:53 AM 35.1 °F 25.5 °F 26.1 °F 70% 29.91 in 10.0 mi SW 15.0 mph - N/A   Clear
3:53 AM 37.0 °F 26.2 °F 25.0 °F 62% 29.86 in 10.0 mi SW 21.9 mph - N/A   Clear
4:53 AM 32.0 °F 22.1 °F 24.1 °F 73% 29.94 in 10.0 mi SSW 13.8 mph - N/A   Clear
5:53 AM 30.9 °F 22.2 °F 25.0 °F 79% 29.94 in 10.0 mi SW 10.4 mph - N/A   Clear
6:53 AM 33.1 °F 26.1 °F 25.0 °F 72% 29.96 in 10.0 mi WSW 8.1 mph - N/A   Partly Cloudy
7:53 AM 39.0 °F 36.8 °F 28.9 °F 67% 29.92 in 10.0 mi Variable 3.5 mph - N/A   Scattered Clouds
8:53 AM 42.1 °F 33.1 °F 30.9 °F 65% 29.94 in 10.0 mi SW 20.7 mph - N/A   Clear
9:53 AM 46.0 °F 39.9 °F 28.9 °F 51% 29.91 in 10.0 mi West 13.8 mph - N/A   Clear
10:53 AM 50.0 °F - 26.1 °F 39% 29.90 in 10.0 mi SW 20.7 mph 26.5 mph N/A   Scattered Clouds
11:53 AM 46.0 °F 38.0 °F 27.0 °F 47% 29.92 in 10.0 mi SW 21.9 mph - N/A   Mostly Cloudy
12:53 PM 46.9 °F - 25.0 °F 42% 29.94 in 10.0 mi SW 17.3 mph 21.9 mph N/A   Mostly Cloudy
1:53 PM 51.1 °F - 24.1 °F 35% 29.90 in 10.0 mi West 24.2 mph 36.8 mph N/A   Partly Cloudy
2:53 PM 48.0 °F - 25.0 °F 41% 29.89 in 10.0 mi West 19.6 mph - N/A   Partly Cloudy
3:53 PM 46.0 °F 38.3 °F 26.1 °F 46% 29.91 in 10.0 mi West 20.7 mph - N/A   Clear
4:53 PM 39.0 °F - 26.1 °F 60% 30.01 in 10.0 mi Calm Calm - N/A   Clear
5:53 PM 34.0 °F 27.2 °F 25.0 °F 70% 30.07 in 10.0 mi WSW 8.1 mph - N/A   Clear
6:53 PM 36.0 °F 31.1 °F 27.0 °F 70% 30.05 in 10.0 mi WSW 5.8 mph - N/A   Clear
7:53 PM 35.1 °F - 28.0 °F 76% 30.04 in 10.0 mi Calm Calm - N/A   Partly Cloudy
8:53 PM 35.1 °F 32.2 °F 28.0 °F 76% 30.04 in 10.0 mi Variable 3.5 mph - N/A   Mostly Cloudy
9:53 PM 34.0 °F 27.2 °F 28.0 °F 79% 30.03 in 10.0 mi SE 8.1 mph - N/A   Mostly Cloudy
10:53 PM 36.0 °F - 27.0 °F 70% 30.00 in 10.0 mi Calm Calm - N/A   Partly Cloudy
11:53 PM 34.0 °F 26.6 °F 30.0 °F 85% 30.06 in 10.0 mi NNW 9.2 mph - N/A   Overcast